Home   Weather   Sidney   Past weeks

Flag for Canada Past Weather in Sidney, British Columbia, Canada — Yesterday and Last 2 Weeks

Now
30 °F

Passing clouds.


Feels Like: 24 °F
Forecast: 37 / 43 °F
Wind: 6 mph from West

Location: Victoria Int. Airportb. C.

Current Time: Jan 24, 2017 at 7:22:31 am

Latest Report: Jan 24, 2017 at 6:16 am


Visibility: 20 mi

Pressure: 30.09 "Hg

Humidity: 100%

Dew Point: 30 °F

Location of SidneyLocation

Past Weather in Sidney — Graph

°F

Sidney Temperature Yesterday

Maximum temperature yesterday: 46 °F (at 1:00 pm)
Minimum temperature yesterday: 34 °F (at 1:00 am)
Average temperature yesterday: 38 °F

High & Low Weather Summary for the Past Weeks

 TemperatureHumidityPressure
High50 °F (Jan 18, 11:00 am)100% (Jan 16, 7:00 pm)30.49 "Hg (Jan 16, 7:00 pm)
Low21 °F (Jan 12, 5:00 am)31% (Jan 11, 12:00 am)29.13 "Hg (Jan 20, 2:00 pm)
Average38 °F85%29.75 "Hg
* Reported Jan 9 6:00 am — Jan 24 6:00 am, Sidney, Weather by CustomWeather, © 2017

Note: Actual official high and low records may vary slightly from our data, if they occured in-between our weather recording intervals... More about our weather records

Advertising

Sidney Weather History for the Previous 24 Hours

Scroll right to see more
 ConditionsComfort  
Time TempWeatherWind HumidityBarometerVisibility
6:00 am
Tue, Jan 24
30 °FPassing clouds.6 mph93%30.09 "Hg20 mi
5:00 am30 °FClear.6 mph100%30.08 "Hg20 mi
4:00 am30 °FClear.6 mph100%30.06 "Hg20 mi
3:00 am30 °FClear.5 mph93%30.05 "Hg20 mi
2:00 am34 °FClear.7 mph93%30.04 "Hg20 mi
1:00 am32 °FClear.5 mph93%30.02 "Hg20 mi
12:00 am34 °FClear.7 mph93%30.02 "Hg20 mi
11:00 pm
Mon, Jan 23
36 °FPassing clouds.5 mph93%30.01 "Hg20 mi
10:00 pm36 °FClear.8 mph100%29.98 "Hg20 mi
9:00 pm34 °FClear.7 mph100%29.96 "Hg20 mi
8:00 pm36 °FClear.6 mph93%29.96 "Hg20 mi
7:00 pm36 °FClear.5 mph93%29.94 "Hg20 mi
6:00 pm36 °FPassing clouds.2 mph93%29.93 "Hg20 mi
5:00 pm43 °FPassing clouds.3 mph87%29.91 "Hg20 mi
4:00 pm46 °FPassing clouds.5 mph76%29.90 "Hg20 mi
3:00 pm46 °FPassing clouds.2 mph76%29.88 "Hg20 mi
2:00 pm46 °FPassing clouds.3 mph76%29.87 "Hg20 mi
1:00 pm46 °FPassing clouds.3 mph71%29.87 "Hg20 mi
12:00 pm45 °FPassing clouds.6 mph81%29.85 "Hg20 mi
11:00 am43 °FPassing clouds.7 mph87%29.86 "Hg20 mi
10:00 am37 °FBroken clouds.3 mph93%29.84 "Hg20 mi
9:00 am36 °FBroken clouds.5 mph100%29.82 "Hg15 mi
8:00 am34 °FScattered clouds.5 mph100%29.79 "Hg15 mi
7:37 am36 °FFog.5 mph93%29.78 "Hg20 mi
7:00 am36 °FPassing clouds.5 mph100%29.77 "Hg20 mi
Weather by CustomWeather, © 2017

See weather overviewHow to use our weather pages